Aeroporto :
LOGIN :

Iscrizione | Disclaimer

   EN    FR    IT 

 










Sommario :    VFR   VFR Marginale   IFR   IFR Intensivo   IFR Molto Intensivo
Visibilità : 
Base nubi : 
>= 8 km
>= 3000ft
5 / 8 km
1000 / 3000 ft
1500m / 5 km
500 / 1000 ft
800 / 1500m
200 / 500 ft
< 800m
< 200 ft
Simboli :   Temporali  Nebbia  Neve Forte  Precipitazioni Forti  Vento > 20 kt
SIGMETs :   Varie  Temporali  Ghiacco  Turbolenza  Onda orograficha  Ceneri Vulcaniche






- Altitudine del aeroporto : 2077 ft
- Codice IATA : FMM


EDJA - Memmingen

ULTIMO METAR :
  • 220350Z 35003KT 9999 NSC 15/15 Q1012

METARs OBSOLETI :
  • 220320Z AUTO 12003KT 080V150 9999 // BKN086/// 15/14 Q1012
  • 220250Z AUTO 03003KT 330V040 9999 // FEW055/// OVC090/// 15/14 Q1012
  • 220220Z AUTO 05002KT 9999 // FEW016/// OVC089/// 15/14 Q1012
  • 220150Z AUTO 09003KT 9999 // OVC091/// 15/14 Q1012

Previsioni scadute.



MetMap, La meteo Aeronautica in un colpo d'occhio ! - Copyright ORBIFLY Dicembre 2007 - Disclaimer

ORBIFLY MET'MAP TEAM :

Programmazione e sviluppo : Alexandra Zaïnal
Concezione : Baudouin d'Aumeries
Aiuto per la programmazione : Marc-Olivier Méhu
Supporto tecnico e logistico : Manuel Goepfert
Aiuto per la traduzione : Arnaldo La Scala

Contatto : metmap@orbifly.com




FONTI E CREDITI :

   NOAA